Location: Newark
(52.4787°S, 179.0532°W)
Time: 12:20:02
(UTC+00:00)

ISS - Pass Details

Date: 29 October 2019
Orbit: 412 x 421 km, 51.6° (Epoch: 17 November)

Event Time Altitude Azimuth Distance (km) Brightness Sun altitude
Rises 07:52:07 0° 265° (W) 2,380 1.3 -8.0°
Reaches altitude 10° 07:54:14 10° 267° (W) 1,516 0.1 -8.3°
Maximum altitude 07:57:37 71° 350° (N) 454 -3.7 -8.7°
Enters shadow 08:00:47 12° 74° (ENE) 1,423 -1.7 -9.1°
